Left ArrowRight Arrow

Hourly Observations for June 16, 2024

Temp ( °F °C ) Dew Point ( °F °C ) Humidity (%) Winds ( mph kmh ) Pressure ( in mb ) Visibility ( mi km ) Precip ( " mm )
12:53 am 00:53 Mostly Cloudy 81 27.2 66 18.9 61 61 E 6 9 30.02 1017 10 16 0.00 0.00
1:53 am 01:53 Mostly Cloudy 76 24.4 67 19.4 74 74 NNE 6 9 30.03 1017 10 16 0.00 0.00
2:53 am 02:53 Cloudy 75 23.9 67 19.4 76 76 NNE 5 7 30.04 1017 10 16 0.00 0.00
3:53 am 03:53 Mostly Cloudy 73 22.8 66 18.9 79 79 NNE 3 6 30.04 1017 10 16 0.00 0.00
4:53 am 04:53 Clear 71 21.7 66 18.9 84 84 N 5 7 30.04 1017 10 16 0.00 0.00
5:53 am 05:53 Clear 72 22.2 66 18.9 82 82 NNE 3 6 30.06 1018 10 16 0.00 0.00
6:53 am 06:53 Sunny 71 21.7 67 19.4 87 87 NNE 3 6 30.08 1019 10 16 0.00 0.00
7:53 am 07:53 Cloudy 74 23.3 66 18.9 76 76 NNE 7 11 30.09 1019 10 16 0.00 0.00
8:53 am 08:53 Cloudy 76 24.4 66 18.9 71 71 NNE 7 11 30.11 1020 10 16 0.00 0.00
9:53 am 09:53 Mostly Cloudy 77 25 66 18.9 69 69 NNE 7 11 30.13 1020 10 16 0.00 0.00
10:53 am 10:53 Sunny 79 26.1 67 19.4 67 67 NE 7 11 30.13 1020 10 16 0.00 0.00
11:53 am 11:53 Sunny 83 28.3 69 20.6 63 63 NNE 9 15 30.13 1020 10 16 0.00 0.00
12:53 pm 12:53 Partly Cloudy 85 29.4 69 20.6 59 59 VRB 5 7 30.12 1020 10 16 0.00 0.00
1:53 pm 13:53 Partly Cloudy 87 30.6 68 20 53 53 VRB 3 6 30.11 1020 10 16 0.00 0.00
2:53 pm 14:53 Mostly Cloudy 88 31.1 67 19.4 50 50 SE 7 11 30.09 1019 10 16 0.00 0.00
3:53 pm 15:53 Mostly Cloudy 90 32.2 66 18.9 45 45 SE 8 13 30.07 1018 10 16 0.00 0.00
4:53 pm 16:53 Partly Cloudy 91 32.8 65 18.3 42 42 VRB 3 6 30.07 1018 10 16 0.00 0.00
5:53 pm 17:53 Partly Cloudy 91 32.8 65 18.3 42 42 SE 6 9 30.06 1018 10 16 0.00 0.00
6:53 pm 18:53 Mostly Sunny 90 32.2 65 18.3 44 44 SSE 6 9 30.06 1018 10 16 0.00 0.00
7:53 pm 19:53 Sunny 87 30.6 65 18.3 48 48 SE 6 9 30.07 1018 10 16 0.00 0.00
8:53 pm 20:53 Mostly Cloudy 82 27.8 68 20 63 63 NE 6 9 30.09 1019 10 16 0.00 0.00
9:53 pm 21:53 Cloudy 81 27.2 71 21.7 72 72 NNE 7 11 30.10 1019 10 16 0.00 0.00
10:53 pm 22:53 Mostly Cloudy with Light Rain 80 26.7 71 21.7 74 74 E 7 11 30.13 1020 10 16 0.01 0.13
11:53 pm 23:53 Cloudy with Light Rain 77 25 73 22.8 88 88 ENE 3 6 30.14 1021 8 13 0.02 0.51

Powered by Vaisala Xweather